Stündliche Wetter Cayo Santa María

Heute, 21 Oktober, Mittwoch

Zeit Temperatur Niederschläge Wind Luftdruck Luftfeuchtigkeit
00:00 +26°C° 0.7 mm 7 m/S 757 mmHg 94%
01:00 +26°C° 0.7 mm 6 m/S 757 mmHg 95%
02:00 +26°C° 0.3 mm 6 m/S 757 mmHg 95%
03:00 +24°C° 0.3 mm 6 m/S 757 mmHg 95%
04:00 +25°C° 0.3 mm 5 m/S 756 mmHg 95%
05:00 +25°C° 0 mm 5 m/S 757 mmHg 95%
06:00 +26°C° 0 mm 5 m/S 757 mmHg 95%
07:00 +26°C° 0 mm 5 m/S 758 mmHg 95%
08:00 +27°C° 0 mm 6 m/S 758 mmHg 90%
09:00 +29°C° 0 mm 6 m/S 758 mmHg 85%
10:00 +32°C° 0 mm 6 m/S 758 mmHg 80%
11:00 +32°C° 0.1 mm 6 m/S 758 mmHg 78%
12:00 +32°C° 0.1 mm 7 m/S 758 mmHg 76%
13:00 +33°C° 0.1 mm 7 m/S 758 mmHg 74%
14:00 +32°C° 1.4 mm 7 m/S 757 mmHg 77%
15:00 +30°C° 1.4 mm 7 m/S 757 mmHg 80%
16:00 +30°C° 1.4 mm 7 m/S 756 mmHg 84%
17:00 +29°C° 1.2 mm 8 m/S 757 mmHg 86%
18:00 +28°C° 1.2 mm 8 m/S 757 mmHg 88%
19:00 +27°C° 1.2 mm 8 m/S 758 mmHg 90%
20:00 +27°C° 1.1 mm 8 m/S 758 mmHg 91%
21:00 +26°C° 1.1 mm 8 m/S 758 mmHg 93%
22:00 +26°C° 1.1 mm 8 m/S 759 mmHg 94%
23:00 +26°C° 0.8 mm 8 m/S 758 mmHg 94%

Morgen, 22 Oktober, Donnerstag

Zeit Temperatur Niederschläge Wind Luftdruck Luftfeuchtigkeit
00:00 +26°C° 0.8 mm 8 m/S 758 mmHg 94%
01:00 +26°C° 0.8 mm 8 m/S 758 mmHg 95%
02:00 +26°C° 0.1 mm 8 m/S 758 mmHg 94%
03:00 +26°C° 0.1 mm 8 m/S 757 mmHg 94%
04:00 +24°C° 0.1 mm 7 m/S 757 mmHg 94%
05:00 +26°C° 0.6 mm 7 m/S 758 mmHg 94%
06:00 +26°C° 0.6 mm 7 m/S 758 mmHg 94%
07:00 +26°C° 0.6 mm 7 m/S 758 mmHg 95%
08:00 +28°C° 1 mm 7 m/S 758 mmHg 91%
09:00 +29°C° 1 mm 8 m/S 759 mmHg 87%
10:00 +31°C° 1 mm 8 m/S 759 mmHg 83%
11:00 +32°C° 0.3 mm 8 m/S 759 mmHg 82%
12:00 +32°C° 0.3 mm 8 m/S 758 mmHg 80%
13:00 +32°C° 0.3 mm 8 m/S 758 mmHg 78%
14:00 +32°C° 0.1 mm 8 m/S 758 mmHg 81%
15:00 +31°C° 0.1 mm 8 m/S 757 mmHg 84%
16:00 +29°C° 0.1 mm 8 m/S 757 mmHg 86%
17:00 +29°C° 0.5 mm 8 m/S 758 mmHg 88%
18:00 +28°C° 0.5 mm 8 m/S 758 mmHg 90%
19:00 +27°C° 0.5 mm 8 m/S 758 mmHg 92%
20:00 +27°C° 0.2 mm 8 m/S 759 mmHg 93%
21:00 +27°C° 0.2 mm 8 m/S 759 mmHg 93%
22:00 +27°C° 0.2 mm 8 m/S 759 mmHg 93%
23:00 +27°C° 0 mm 8 m/S 759 mmHg 93%

übermorgen, 23 Oktober, Freitag

Zeit Temperatur Niederschläge Wind Luftdruck Luftfeuchtigkeit
00:00 +26°C° 0 mm 8 m/S 759 mmHg 93%
01:00 +26°C° 0 mm 7 m/S 759 mmHg 93%
02:00 +26°C° 0.1 mm 7 m/S 758 mmHg 94%
03:00 +26°C° 0.1 mm 7 m/S 758 mmHg 94%
04:00 +26°C° 0.1 mm 7 m/S 758 mmHg 95%
05:00 +26°C° 0.5 mm 7 m/S 758 mmHg 95%
06:00 +26°C° 0.5 mm 7 m/S 758 mmHg 95%
07:00 +27°C° 0.5 mm 7 m/S 759 mmHg 95%
08:00 +28°C° 0.7 mm 7 m/S 759 mmHg 90%
09:00 +29°C° 0.7 mm 7 m/S 759 mmHg 86%
10:00 +30°C° 0.7 mm 7 m/S 760 mmHg 81%
11:00 +32°C° 0.6 mm 7 m/S 759 mmHg 80%
12:00 +32°C° 0.6 mm 7 m/S 759 mmHg 78%
13:00 +32°C° 0.6 mm 7 m/S 758 mmHg 77%
14:00 +32°C° 0.1 mm 7 m/S 758 mmHg 79%
15:00 +31°C° 0.1 mm 8 m/S 758 mmHg 81%
16:00 +31°C° 0.1 mm 8 m/S 758 mmHg 84%
17:00 +29°C° 1 mm 8 m/S 758 mmHg 86%
18:00 +28°C° 1 mm 9 m/S 758 mmHg 89%
19:00 +27°C° 1 mm 9 m/S 758 mmHg 92%
20:00 +27°C° 1 mm 9 m/S 759 mmHg 93%
21:00 +26°C° 1 mm 8 m/S 759 mmHg 93%
22:00 +26°C° 1 mm 8 m/S 759 mmHg 93%
23:00 +26°C° 0.5 mm 7 m/S 759 mmHg 93%

24 Oktober, Samstag

Zeit Temperatur Niederschläge Wind Luftdruck Luftfeuchtigkeit
00:00 +26°C° 0.5 mm 6 m/S 759 mmHg 93%
01:00 +26°C° 0.5 mm 5 m/S 758 mmHg 92%
02:00 +26°C° 0.8 mm 5 m/S 758 mmHg 92%
03:00 +26°C° 0.8 mm 5 m/S 758 mmHg 92%
04:00 +26°C° 0.8 mm 5 m/S 758 mmHg 91%
05:00 +26°C° 1.7 mm 5 m/S 758 mmHg 92%
06:00 +26°C° 1.7 mm 5 m/S 758 mmHg 92%
07:00 +26°C° 1.7 mm 4 m/S 759 mmHg 92%
08:00 +27°C° 0.5 mm 4 m/S 759 mmHg 87%
09:00 +29°C° 0.5 mm 4 m/S 759 mmHg 81%
10:00 +30°C° 0.5 mm 4 m/S 760 mmHg 76%
11:00 +31°C° 0 mm 3 m/S 759 mmHg 73%
12:00 +33°C° 0 mm 3 m/S 758 mmHg 70%
13:00 +33°C° 0 mm 3 m/S 758 mmHg 67%
14:00 +33°C° 0.2 mm 4 m/S 758 mmHg 72%
15:00 +32°C° 0.2 mm 4 m/S 757 mmHg 76%
16:00 +30°C° 0.2 mm 5 m/S 757 mmHg 80%
17:00 +29°C° 1.3 mm 5 m/S 757 mmHg 83%
18:00 +28°C° 1.3 mm 5 m/S 757 mmHg 85%
19:00 +27°C° 1.3 mm 5 m/S 758 mmHg 88%
20:00 +27°C° 1.5 mm 5 m/S 758 mmHg 89%
21:00 +27°C° 1.5 mm 5 m/S 758 mmHg 91%
22:00 +26°C° 1.5 mm 6 m/S 759 mmHg 93%
23:00 +26°C° 0.5 mm 5 m/S 758 mmHg 93%

25 Oktober, Sonntag

Zeit Temperatur Niederschläge Wind Luftdruck Luftfeuchtigkeit
00:00 +26°C° 0.5 mm 4 m/S 758 mmHg 93%
01:00 +26°C° 0.5 mm 3 m/S 758 mmHg 93%
02:00 +26°C° 0.1 mm 3 m/S 758 mmHg 92%
03:00 +26°C° 0.1 mm 3 m/S 758 mmHg 92%
04:00 +26°C° 0.1 mm 3 m/S 758 mmHg 91%
05:00 +26°C° 0 mm 4 m/S 759 mmHg 90%
06:00 +26°C° 0 mm 4 m/S 759 mmHg 89%
07:00 +26°C° 0 mm 5 m/S 759 mmHg 87%
08:00 +26°C° 0 mm 4 m/S 760 mmHg 87%
09:00 +27°C° 0 mm 4 m/S 760 mmHg 86%
10:00 +27°C° 0 mm 3 m/S 761 mmHg 85%
11:00 +27°C° 0.3 mm 3 m/S 760 mmHg 84%
12:00 +28°C° 0.3 mm 3 m/S 760 mmHg 83%
13:00 +28°C° 0.3 mm 2 m/S 759 mmHg 81%
14:00 +28°C° 0.1 mm 3 m/S 759 mmHg 81%
15:00 +28°C° 0.1 mm 4 m/S 759 mmHg 81%
16:00 +27°C° 0.1 mm 5 m/S 759 mmHg 82%
17:00 +27°C° 0.3 mm 5 m/S 759 mmHg 84%
18:00 +26°C° 0.3 mm 6 m/S 759 mmHg 86%
19:00 +26°C° 0.3 mm 6 m/S 760 mmHg 88%
20:00 +26°C° 0.4 mm 6 m/S 760 mmHg 88%
21:00 +26°C° 0.4 mm 5 m/S 760 mmHg 88%
22:00 +26°C° 0.4 mm 4 m/S 760 mmHg 88%
23:00 +26°C° 0 mm 4 m/S 760 mmHg 87%

26 Oktober, Montag

Zeit Temperatur Niederschläge Wind Luftdruck Luftfeuchtigkeit
00:00 +26°C° 0 mm 4 m/S 760 mmHg 87%
01:00 +25°C° 0 mm 4 m/S 760 mmHg 86%
02:00 +25°C° 0 mm 4 m/S 760 mmHg 87%
03:00 +25°C° 0 mm 4 m/S 760 mmHg 88%
04:00 +25°C° 0 mm 5 m/S 760 mmHg 88%
05:00 +26°C° 0 mm 5 m/S 760 mmHg 89%
06:00 +26°C° 0 mm 5 m/S 760 mmHg 89%
07:00 +26°C° 0 mm 6 m/S 760 mmHg 90%
08:00 +28°C° 0 mm 6 m/S 761 mmHg 85%
09:00 +29°C° 0 mm 6 m/S 761 mmHg 80%
10:00 +32°C° 0 mm 7 m/S 761 mmHg 75%
11:00 +32°C° 0 mm 7 m/S 761 mmHg 74%
12:00 +32°C° 0 mm 7 m/S 761 mmHg 73%
13:00 +33°C° 0 mm 7 m/S 760 mmHg 72%
14:00 +32°C° 0 mm 7 m/S 760 mmHg 75%
15:00 +32°C° 0 mm 7 m/S 760 mmHg 78%
16:00 +30°C° 0 mm 7 m/S 759 mmHg 81%
17:00 +29°C° 0 mm 7 m/S 760 mmHg 83%
18:00 +28°C° 0 mm 7 m/S 760 mmHg 86%
19:00 +27°C° 0 mm 7 m/S 760 mmHg 89%
20:00 +27°C° 0.1 mm 7 m/S 761 mmHg 89%
21:00 +27°C° 0.1 mm 7 m/S 761 mmHg 89%
22:00 +26°C° 0.1 mm 7 m/S 761 mmHg 89%
23:00 +26°C° 0.2 mm 7 m/S 761 mmHg 90%

27 Oktober, Dienstag

Zeit Temperatur Niederschläge Wind Luftdruck Luftfeuchtigkeit
00:00 +26°C° 0.2 mm 7 m/S 761 mmHg 91%
01:00 +26°C° 0.2 mm 7 m/S 761 mmHg 92%
02:00 +26°C° 0.1 mm 7 m/S 761 mmHg 92%
03:00 +26°C° 0.1 mm 7 m/S 760 mmHg 93%
04:00 +26°C° 0.1 mm 8 m/S 760 mmHg 93%
05:00 +26°C° 0.1 mm 8 m/S 760 mmHg 93%
06:00 +26°C° 0.1 mm 8 m/S 760 mmHg 93%
07:00 +27°C° 0.1 mm 9 m/S 761 mmHg 93%
08:00 +28°C° 0 mm 9 m/S 761 mmHg 87%
09:00 +29°C° 0 mm 9 m/S 761 mmHg 81%
10:00 +32°C° 0 mm 9 m/S 762 mmHg 76%
11:00 +32°C° 0 mm 8 m/S 761 mmHg 73%
12:00 +32°C° 0 mm 8 m/S 761 mmHg 71%
13:00 +33°C° 0 mm 8 m/S 760 mmHg 69%
14:00 +32°C° 0 mm 7 m/S 760 mmHg 72%
15:00 +32°C° 0 mm 7 m/S 760 mmHg 74%
16:00 +30°C° 0 mm 7 m/S 759 mmHg 77%
17:00 +29°C° 0 mm 7 m/S 760 mmHg 81%
18:00 +28°C° 0 mm 7 m/S 760 mmHg 85%
19:00 +27°C° 0 mm 7 m/S 760 mmHg 88%
20:00 +26°C° 0.1 mm 7 m/S 760 mmHg 89%
21:00 +26°C° 0.1 mm 7 m/S 761 mmHg 90%
22:00 +26°C° 0.1 mm 8 m/S 761 mmHg 91%
23:00 +26°C° 0.4 mm 8 m/S 760 mmHg 91%
Mehr zeigen